Regional Weather Roundup
Issued by NWS

Home | Current Version | Previous Version | Text Only | Print | Product List | Glossary On
Versions: 1 2 3 4 5 6 7 8 9 10 11 12 13 14 15 16 17 18 19 20 21 22 23 24 25 26 27 28 29 30 31 32 33 34 35 36 37 38 39 40 41 42 43 44 45 46 47 48 49 50
853
ASUS44 KJAN 231510
RWRMS

MISSISSIPPI HOURLY WEATHER ROUNDUP
NATIONAL WEATHER SERVICE JACKSON MS
1000 AM CDT SAT AUG 23 2014

NOTE: "FAIR: INDICATES FEW OR NO CLOUDS BELOW 12,000 FEET WITH NO
SIGNIFICANT WEATHER AND/OR OBSTRUCTIONS TO VISIBILITY.

MSZ001>002-007>008-010>013-018>021-025>028-034>036-231600-
NORTHWEST MISSISSIPPI

CITY           SKY/WX    TMP DP  RH WIND       PRES   REMARKS
CLARKSDALE     FAIR      86  77  74 CALM      30.03F HX  97
CLEVELAND      FAIR      86  76  72 W5        30.03S HX  95
GREENWOOD      SUNNY     84  74  71 SW5       30.05S HX  91
GREENVILLE     SUNNY     86  74  67 W5        30.03S HX  94
GRENADA        FAIR      82  73  74 SW3       30.04S
OLIVE BRANCH   SUNNY     86  79  79 SW3       30.04R HX  99
OXFORD         FAIR      84  72  65 W7        30.06S
TUNICA         SUNNY     86  73  66 W8        30.03S HX  93
$$

MSZ003>006-009-014>017-022>024-029>033-037>039-231600-
NORTHEAST MISSISSIPPI

CITY           SKY/WX    TMP DP  RH WIND       PRES   REMARKS
BELMONT        FAIR      85  75  72 NW6       30.05S HX  92
COLUMBUS AFB   SUNNY     87  72  62 NW1       30.05R HX  93
CORINTH        FAIR      86  73  66 VRB5      30.04R HX  93
GOLDN TRIANGLE SUNNY     88  72  58 NW7       30.06R HX  94
STARKVILLE     FAIR      86  72  62 NW3       30.05S HX  92
TUPELO         SUNNY     88  72  58 N7        30.04S HX  94
$$

MSZ040-058-231600-
CENTRAL MISSISSIPPI

CITY           SKY/WX    TMP DP  RH WIND       PRES   REMARKS
JACKSON INTL   SUNNY     88  73  61 W7        30.06S HX  95
JACKSON HAWKNS SUNNY     87  73  62 NW5       30.06S HX  94
MERIDIAN KEY   SUNNY     88  71  57 NW5       30.05F HX  94
MERIDIAN NAS   MOSUNNY   88  72  58 N7        30.05S HX  94
RAYMOND        FAIR      86  81  84 CALM      30.06S HX 102
VICKSBURG      SUNNY     87  75  67 CALM      30.05S HX  96
$$

MSZ059>079-231600-
SOUTH MISSISSIPPI

CITY           SKY/WX    TMP DP  RH WIND       PRES   REMARKS
BROOKHAVEN     FAIR      86  77  74 CALM      30.08S HX  97
COLUMBIA       FAIR      88  75  66 MISG      30.05S HX  97
HATTIESBURG    SUNNY     90  72  55 N5        30.06R HX  97
MCCOMB         SUNNY     88  74  63 VRB7      30.06S HX  96
NATCHEZ        SUNNY     84  72  65 NW5       30.07S
PINE BELT      SUNNY     90  70  51 NE5       30.08R HX  95
$$

MSZ080>082-231600-
COASTAL MISSISSIPPI

CITY           SKY/WX    TMP DP  RH WIND       PRES   REMARKS
BAY ST LOUIS   SUNNY    N/A N/A N/A VRB5      30.03S
BILOXI         SUNNY     91  75  60 NE7       30.02F HX 101
PASCAGOULA     SUNNY     89  76  65 N8        30.02S HX 100
GULFPORT       SUNNY     90  75  61 N6        30.02S HX 100
$$



USA.gov is the U.S. government's official web portal to all federal, state and local government web resources and services.